Погода в Куневе

Украина / Хмельницкая область     50°14′26″N   26°22′00″E
темп.,
°C
ветер,
м/с
пор.,
м/с
влажн.,
%
обл.,
%
осадки,
мм/ч
давл.,
гПа
погр.,
м
27 сентября, пн
пн2700:00+9св22829 0.0 102314
03:00+8св228987 0.0 102412
06:00+7св229242 0.0 102429
09:00+9всв458321 0.0 1024236
12:00+13в44605 0.0 1024757
15:00+15всв45495 0.0 10221031
18:00+13всв46590 0.0 1022290
21:00+9в38765 0.0 1024147
28 сентября, вт
вт2800:00+7в410850 0.0 1024238
03:00+5в37920 0.0 1025144
06:00+5в37940 0.0 1025137
09:00+8в48790 0.0 1025272
12:00+13вюв56570 0.0 10251067
15:00+15в564924 0.0 10251589
18:00+13в365815 0.0 1025192
21:00+9в49695 0.0 1027152
29 сентября, ср
ср2900:00+8в37716 0.0 1028118
03:00+7в347537 0.0 102954
06:00+7вюв357970 0.0 1029104
09:00+10вюв487255 0.0 1029307
12:00+13вюв686199 0.0 1029946
15:00+14вюв68555 0.1 10291261
18:00+14юв575294 0.0 1028473
21:00+10вюв512630 0.0 1029341
30 сентября, чт
чт3000:00+8вюв513710 0.0 1030373
03:00+6юв513770 0.0 1030317
06:00+6юв512800 0.0 1030296
09:00+8юв613690 0.0 1030401
12:00+14ююв78490 0.0 1029967
15:00+16ююв67435 0.0 10281425
18:00+14юв4754100 0.0 1028175
21:00+10юв4863100 0.0 1029123
1 октября, пт
пт100:00+8юв4963100 0.0 1030151
03:00+7ююв3959100 0.0 1030172
06:00+7ююв3957100 0.0 1030171
09:00+9ююв41156100 0.0 1030297
12:00+14ююв6841100 0.0 1030739
15:00+15ююв6738100 0.0 10291107
18:00+13юв4746100 0.0 1028206
21:00+10ююв4104943 0.0 1029188